Disclaimer

Please do not use the information listed here in-flight or in-navigation, as they are not provided to us by the airports but are provided by volunteers, so they might be outdated.

Search


Regions


Airport information page

Radio informations:
Tower (TWR) - 122.1 MHz
RADAR - 123.3 MHz
LANGEN CON - 128.5 MHz

Airport informations:
Latitude: 50° 49' 52.20" N
Longitude: 006° 39' 29.40" E
Elevation: 386 feet - 118 meters
Operating hours: Remarks
Operating agency: Military
Timezone: UTC+1(+2DT) - Last Sunday in March to last Sunday in October
Fuel: JP-8, SemiKeroscene MIL Spec T-83133, without icing inhibitor

Runway information:
07/25 - 8003 x 148 feet< - >2439 x 45 meters

Recent METARs:
ETNN 160220Z 25007KT 9999 BKN020 BKN036 06/03 Q1015 WHT
ETNN 160220Z 25007KT 9999 BKN020 BKN036 06/03 Q1015 WHT
ETNN 160320Z 24007KT 9999 BKN032 06/03 Q1015 BLU

Airport on the map: